Wind_Speed
45 43 42 40 39 39 39 38 38 39 40 39 38 36 34 33 31 30 28 27 25 24 22 20 19 19 19 19 19 19 19 19 18 17 17 16 16 16 17 17 16 15 15 15 15 16 19 20 20 19 19 19 16 14 14 14 15 14 13 12 11 11 10 11 12 13 9 8 8 7 7 8 7 6 8 9 9 8 8 8 7 8 8 10 13
47 45 43 42 40 38 39 39 39 39 40 41 41 39 37 35 34 32 31 30 28 26 25 23 22 21 21 21 21 21 21 20 20 19 19 18 17 17 18 18 18 16 16 17 17 16 17 18 18 19 20 21 19 17 17 17 17 16 15 14 13 12 12 13 14 15 12 8 8 7 7 8 7 7 9 11 10 10 10 9 8 8 9 12 15
48 46 45 43 41 39 38 39 39 40 40 42 42 42 40 38 36 36 34 33 31 30 28 27 25 24 23 22 22 22 22 22 22 21 21 20 19 19 19 19 20 19 18 18 18 18 17 16 16 17 20 22 21 20 19 19 18 17 15 14 14 13 13 14 15 17 16 12 9 8 8 8 8 8 9 11 12 13 13 12 10 9 11 14 16
49 48 46 44 42 40 39 39 40 41 41 42 43 43 42 40 39 38 37 36 35 33 32 31 29 28 26 25 24 24 24 23 24 23 23 22 21 21 21 21 21 21 20 19 19 19 18 17 16 16 19 22 21 20 19 18 17 16 15 15 15 14 14 15 16 17 18 17 13 11 11 11 9 9 10 11 12 14 15 14 12 11 12 15 17
50 49 47 45 44 42 41 40 40 41 41 41 42 43 43 42 40 40 39 39 38 37 36 35 33 32 30 28 27 26 25 25 25 25 25 24 23 23 23 22 22 22 22 20 20 20 20 19 17 16 18 20 20 19 19 18 16 16 16 15 15 15 15 16 17 17 19 20 18 15 14 14 12 10 11 12 13 15 15 14 13 13 13 14 15
50 50 48 47 46 44 42 41 40 40 40 40 41 42 43 43 43 41 41 40 40 39 38 37 36 34 33 31 29 28 27 26 26 26 27 26 26 25 24 24 24 23 23 22 21 21 21 21 20 19 19 20 20 19 18 18 17 17 17 17 16 16 17 17 17 18 19 20 20 18 16 15 14 11 11 13 15 17 17 15 14 14 14 12 12
50 50 49 48 47 45 44 42 41 39 39 39 39 40 42 43 43 43 42 41 41 40 40 39 38 36 35 33 32 31 29 28 27 27 27 27 28 28 26 26 25 25 25 24 23 23 22 22 22 22 22 22 21 20 19 19 19 19 18 17 17 17 18 18 18 18 19 19 19 19 17 15 14 13 12 13 16 18 19 18 16 15 15 12 11
49 50 49 49 48 46 44 43 42 40 38 37 37 38 40 42 43 43 42 42 42 41 41 40 39 38 38 36 35 34 32 31 30 29 28 28 28 29 29 28 27 26 26 25 25 25 24 24 24 23 23 23 23 22 21 20 20 19 18 17 17 18 18 18 18 18 19 19 18 18 17 16 15 14 13 15 16 17 17 18 17 15 15 13 12
48 49 49 49 48 46 45 43 42 41 40 38 38 37 38 40 41 42 43 42 42 41 41 41 41 40 40 38 37 36 35 34 32 30 29 29 28 29 30 30 29 27 26 26 26 26 26 26 25 24 24 23 23 23 22 21 21 20 18 18 18 19 19 19 19 19 19 19 18 17 17 17 15 14 14 16 17 17 17 17 17 16 15 14 12
47 48 49 49 48 46 45 44 43 42 41 40 39 38 37 38 40 41 43 43 42 42 41 41 42 42 41 40 39 38 37 36 34 32 31 30 29 28 29 30 31 30 29 28 27 27 27 26 26 25 25 24 24 23 23 23 23 22 20 20 20 21 22 21 20 18 17 18 17 16 17 17 14 14 16 16 17 17 17 17 17 16 15 14 11
45 46 47 47 46 46 45 44 44 43 42 41 39 38 38 38 39 40 41 42 42 42 42 42 43 42 42 41 40 39 38 37 36 34 32 31 31 30 30 30 31 31 31 30 29 28 28 27 27 26 26 25 24 24 24 24 24 23 22 21 22 22 21 20 18 16 16 17 16 16 18 17 15 15 16 17 17 17 17 17 17 16 16 15 13
43 43 44 44 44 45 45 44 44 43 42 41 39 38 38 38 39 40 40 41 42 42 43 43 43 43 42 42 41 41 39 38 37 35 33 32 32 32 31 31 31 31 32 32 31 30 29 29 28 28 27 26 25 24 24 24 24 24 23 23 23 22 21 19 18 17 17 19 19 19 20 19 18 16 16 17 18 18 17 17 17 16 15 15 15
40 41 42 42 43 43 43 43 43 43 42 40 39 38 38 39 39 40 40 40 41 42 42 43 43 43 43 43 42 41 40 38 37 35 34 33 32 33 33 33 33 32 32 32 32 31 30 30 30 29 28 27 26 26 25 25 24 24 24 25 25 24 23 21 20 20 20 21 23 22 20 20 20 18 16 18 20 19 18 17 17 16 16 15 15
37 39 40 40 41 41 41 42 42 41 40 39 39 39 39 39 38 39 39 40 41 42 43 43 43 42 43 43 42 41 40 38 37 35 34 33 33 33 33 33 34 33 33 33 33 32 32 31 31 30 29 29 29 28 28 27 26 26 26 26 26 25 24 24 24 23 22 23 25 24 22 22 22 21 19 20 21 21 20 19 18 17 17 16 16
35 38 38 39 40 40 40 40 40 40 40 39 39 39 38 37 37 37 38 39 40 42 42 43 43 42 42 42 42 41 39 37 37 36 35 34 33 33 34 34 34 34 34 34 34 33 32 32 31 31 30 30 30 29 29 28 28 28 27 26 26 25 24 24 24 24 23 24 26 26 26 26 26 24 22 22 22 22 21 20 20 19 18 17 17
35 37 37 38 39 40 39 40 40 39 39 39 40 39 38 37 35 35 36 37 38 39 41 43 44 43 42 42 42 41 39 37 37 36 35 34 34 35 35 35 35 35 35 35 35 34 33 32 32 31 31 31 30 29 29 29 28 28 28 27 26 26 26 25 25 24 24 25 25 26 26 26 26 26 24 23 23 23 22 21 21 20 19 19 19
31 33 33 34 35 38 39 40 40 39 39 39 40 40 39 37 35 34 35 36 36 37 39 40 42 43 43 42 42 42 40 37 37 37 36 35 36 36 36 36 36 36 36 35 36 35 34 34 33 33 32 31 30 29 29 29 29 29 29 28 27 27 27 27 25 25 26 26 27 28 28 27 27 27 25 24 23 23 22 23 21 20 20 21 20
22 25 26 26 27 31 35 38 39 39 39 39 40 41 40 38 36 35 35 35 34 34 34 36 39 42 43 43 43 42 40 38 37 37 37 37 37 38 38 38 37 37 36 36 35 36 35 35 34 34 33 31 30 29 28 29 29 29 29 29 29 29 28 27 26 26 26 27 28 29 30 29 28 27 26 24 23 22 23 23 21 21 22 22 21
16 17 19 20 19 21 26 33 37 38 39 40 40 40 41 39 38 37 36 36 34 33 32 33 35 38 41 43 43 43 41 39 38 38 38 38 38 39 39 40 39 38 37 36 35 35 35 35 34 34 33 31 29 28 28 29 30 29 29 29 30 30 29 27 26 26 25 25 25 25 26 26 24 25 24 23 22 22 22 22 22 23 24 23 21
13 14 16 17 15 15 17 23 29 34 37 39 40 40 40 40 40 39 39 38 36 35 34 34 34 35 37 41 43 43 43 41 40 39 39 39 39 39 40 41 41 39 38 37 36 35 35 34 34 33 33 31 30 29 30 30 31 30 30 30 31 30 28 27 26 25 24 23 23 23 23 23 23 23 24 23 23 22 22 22 22 23 24 23 21
10 12 15 17 16 15 15 17 22 26 29 34 38 39 40 40 41 41 41 40 39 37 36 36 35 34 34 37 40 42 43 42 41 40 40 40 39 39 40 41 40 39 39 38 37 36 35 34 33 31 31 30 30 30 31 31 31 31 31 31 31 29 27 27 26 26 26 25 25 25 25 25 25 25 25 24 24 23 23 23 23 23 22 21 21
11 12 15 17 18 18 16 15 17 20 23 27 34 37 38 39 41 42 42 42 41 40 38 37 37 37 36 36 38 40 42 42 42 41 41 41 40 40 41 40 39 38 39 39 39 38 36 35 33 31 29 28 27 28 28 29 29 29 29 28 28 27 27 27 27 27 28 28 28 28 29 29 28 28 27 26 25 25 25 23 21 20 20 20 20
13 13 14 15 18 20 19 17 16 17 19 23 30 34 35 35 38 42 44 45 43 42 40 39 39 39 39 39 39 39 40 42 43 42 42 42 41 41 41 40 39 39 40 40 39 38 37 35 34 32 30 28 27 25 25 25 25 25 25 24 25 26 27 29 29 30 31 31 31 32 33 32 31 30 29 28 27 27 26 22 20 19 19 19 19
14 14 14 14 16 18 20 20 19 18 17 20 25 31 34 34 35 39 44 46 45 45 43 41 41 42 42 42 41 40 40 41 43 43 43 42 42 42 42 41 40 40 41 41 40 39 37 36 34 33 31 30 28 25 24 23 24 24 23 24 25 26 29 31 31 32 34 35 36 37 36 35 34 32 31 29 28 27 25 22 20 20 20 19 19
18 16 15 15 15 15 17 19 20 20 19 18 21 26 31 34 36 39 42 45 46 47 45 44 43 43 43 44 43 42 41 42 42 43 43 43 43 43 43 42 41 41 42 41 40 39 37 36 34 34 33 32 30 28 26 25 25 24 24 24 25 27 28 29 30 31 34 36 37 38 37 36 35 33 31 29 27 26 24 23 21 21 21 20 19
22 20 19 18 17 16 16 17 18 19 20 20 21 23 26 31 36 39 42 44 46 47 47 46 45 45 46 45 44 43 42 42 43 43 43 44 44 44 43 43 42 42 42 42 40 39 38 36 35 35 34 33 32 30 29 28 27 27 26 26 27 27 27 28 29 31 33 35 35 36 35 34 33 31 29 27 26 25 24 23 22 22 22 20 19
24 23 22 21 20 19 18 17 17 19 20 21 22 23 24 28 34 39 42 45 46 47 48 48 47 47 47 46 45 44 44 44 44 44 44 45 45 44 44 44 43 43 43 43 42 41 40 38 37 36 35 35 34 33 32 31 31 31 30 29 28 28 28 28 29 30 32 32 33 32 31 30 29 28 26 26 25 24 24 24 24 24 22 20 19
25 24 23 23 22 20 18 17 17 18 20 22 24 25 26 28 33 38 41 43 45 46 47 48 49 48 47 46 45 45 45 45 45 45 45 45 45 45 45 44 44 44 44 44 42 41 40 40 39 37 37 37 36 36 36 35 34 33 32 31 30 29 29 29 30 30 30 30 30 30 29 28 27 25 24 24 24 24 24 24 24 24 21 20 20
25 25 24 23 21 19 17 16 16 16 18 21 24 27 28 29 32 36 39 41 42 43 43 45 46 45 45 45 45 46 48 46 43 42 43 43 43 44 44 44 44 43 42 41 40 41 41 41 41 40 39 39 39 38 38 37 36 34 33 32 32 31 30 30 31 30 29 28 29 29 28 27 26 24 24 24 23 22 23 24 24 22 20 21 22
25 25 24 23 22 19 18 16 16 16 17 20 23 26 27 28 30 33 37 39 40 40 41 42 41 42 44 44 43 43 44 41 37 36 38 39 41 43 43 43 42 42 40 39 40 42 43 43 42 41 41 40 40 39 38 36 35 34 34 33 32 32 31 31 31 30 28 27 29 29 29 27 25 25 25 24 23 22 23 23 23 22 21 23 25
25 26 26 25 23 21 19 17 16 16 16 18 22 25 26 27 29 32 35 38 40 41 42 42 41 43 46 46 43 42 41 39 37 37 38 38 39 41 41 42 42 41 40 39 40 43 44 43 42 41 41 40 40 39 37 36 34 34 33 33 33 33 33 32 31 29 28 29 30 30 30 30 29 28 27 26 25 25 25 24 24 24 24 26 26
24 25 26 26 25 24 22 19 17 17 17 17 20 23 25 27 30 32 34 38 41 43 44 44 44 45 46 47 46 45 43 41 40 40 40 39 40 40 40 41 42 41 39 39 40 42 42 41 40 40 40 40 39 38 36 35 34 34 34 34 34 33 33 32 30 29 29 30 30 30 31 32 32 32 30 28 28 28 27 26 25 25 27 28 26
21 23 24 25 26 26 24 22 19 18 17 18 20 22 24 26 30 33 35 38 42 45 47 48 48 48 48 48 48 47 45 43 41 41 40 40 40 40 40 41 41 40 40 41 42 42 41 39 39 39 38 37 37 37 37 36 35 34 34 33 33 32 32 31 30 31 31 30 29 29 30 31 32 33 32 32 31 30 28 26 26 27 30 29 25
19 20 22 23 25 27 26 25 23 21 19 19 20 22 23 25 29 33 36 39 42 45 47 49 50 50 50 50 49 48 46 45 44 43 41 41 40 40 40 41 41 42 43 43 43 42 40 39 38 38 36 36 36 38 38 37 35 34 34 33 33 33 33 31 31 32 32 31 29 29 29 30 31 32 33 33 31 28 26 26 27 30 30 28 25
17 17 18 19 22 25 26 26 25 25 23 22 21 22 23 25 28 33 37 39 42 44 46 47 48 49 50 50 49 48 46 45 45 44 43 41 40 41 42 44 44 45 46 46 44 42 40 38 38 37 36 36 38 38 37 37 37 36 35 35 35 34 32 30 29 29 29 29 30 28 28 28 29 29 30 30 28 27 27 27 28 29 27 26 26
19 16 16 17 19 22 24 25 26 27 27 26 25 24 23 24 28 34 38 40 42 43 44 45 47 49 50 51 50 49 47 46 47 46 44 42 42 43 45 46 46 46 47 46 44 42 40 38 37 37 37 38 39 39 38 38 38 37 36 36 34 33 30 28 27 26 26 28 29 27 26 27 27 27 28 28 27 26 27 28 27 27 26 27 28
21 18 16 17 18 20 23 25 27 28 30 30 29 27 27 27 29 33 37 40 43 44 45 46 46 47 49 50 51 50 48 47 48 48 47 45 45 46 47 46 46 46 46 45 43 41 39 38 37 38 38 38 39 39 39 38 38 38 37 36 34 32 30 28 27 27 27 28 27 26 26 26 26 26 27 26 25 26 27 27 26 26 27 28 29
22 20 18 17 18 20 22 25 28 30 31 31 31 30 30 31 32 33 36 40 44 47 48 47 47 46 46 46 47 49 50 49 49 49 49 48 48 48 48 47 46 47 46 44 41 40 38 37 38 39 38 38 39 40 40 39 38 38 37 36 35 33 32 31 30 30 30 30 29 27 27 27 26 27 26 24 24 26 26 24 23 24 27 30 31
22 21 19 17 18 19 21 24 28 31 32 32 32 32 32 32 33 34 36 39 43 47 49 49 49 49 47 44 44 45 49 52 51 50 49 49 48 48 47 47 47 47 45 43 41 39 37 37 38 39 38 36 38 41 40 38 37 37 38 37 35 33 32 32 33 32 32 32 32 30 29 29 29 28 27 25 25 26 25 23 23 25 27 29 30
22 22 20 19 19 18 18 21 25 30 33 33 32 33 33 33 33 34 36 38 41 44 47 49 51 50 48 46 45 45 47 50 51 50 49 48 47 46 46 47 46 45 45 43 41 39 37 36 38 38 36 35 36 38 38 37 36 35 35 36 35 32 30 30 30 29 29 30 32 33 32 31 30 30 29 28 27 27 26 25 24 25 26 27 27
21 23 22 21 21 20 20 19 21 26 30 32 33 34 34 35 34 34 36 39 42 45 47 49 51 50 47 47 48 47 46 47 49 49 48 46 45 45 45 45 44 44 44 43 42 39 37 37 38 38 36 35 35 34 35 36 33 29 31 33 32 30 28 28 26 24 23 25 29 32 32 32 32 31 30 29 29 28 27 25 24 25 26 27 26
21 23 24 23 23 23 22 22 21 23 26 30 33 35 35 36 37 37 37 39 43 47 49 50 49 49 49 49 49 49 48 47 48 48 46 44 43 43 43 42 43 44 44 44 43 40 38 38 39 37 36 36 35 33 34 33 27 25 29 31 28 25 27 28 26 24 23 23 25 28 29 30 30 29 29 29 28 28 26 24 23 25 27 26 26
20 23 25 25 24 24 24 24 24 24 25 28 32 34 35 37 38 39 39 39 42 45 49 49 48 49 50 50 48 48 48 48 47 45 44 43 43 42 41 41 42 44 45 46 45 42 39 38 37 35 34 35 32 29 30 28 24 24 29 30 27 25 27 27 26 24 23 24 25 25 26 27 27 26 27 28 27 25 25 24 25 27 27 26 26
20 22 24 25 25 24 24 24 24 25 26 26 28 30 31 33 37 39 40 40 40 42 45 47 47 48 50 49 48 47 48 47 45 44 43 44 43 42 40 40 42 43 45 46 44 41 38 36 34 32 30 28 26 29 33 30 26 25 26 25 24 23 23 22 22 22 23 23 23 24 24 26 26 26 27 27 25 25 26 27 27 28 26 24 23
20 21 22 24 25 25 24 23 23 24 24 25 25 26 26 29 33 37 38 39 39 39 42 45 45 46 47 47 46 45 44 43 43 43 43 43 43 41 40 40 42 43 44 44 43 40 36 33 31 29 26 24 26 33 38 35 32 29 25 21 20 20 19 18 18 19 19 20 21 21 22 24 25 25 26 26 25 25 26 26 27 25 23 21 21
20 20 21 23 24 25 24 24 23 23 23 22 22 22 22 24 27 30 33 36 37 37 39 43 45 45 45 44 43 42 41 41 40 40 41 42 41 40 40 41 42 42 42 41 39 37 33 30 29 27 24 22 22 23 26 26 26 26 25 23 18 16 16 17 19 19 17 17 18 19 19 21 23 24 24 25 24 24 25 26 25 22 20 20 20
19 19 19 20 22 23 23 22 21 20 19 18 16 16 16 17 20 23 26 30 34 36 39 43 46 45 43 42 41 40 39 39 38 38 39 40 40 40 41 41 40 39 38 37 35 33 30 28 27 26 24 24 22 19 19 18 17 19 24 25 19 15 18 22 24 22 17 15 15 17 19 21 23 23 23 24 24 25 25 25 23 20 19 19 19
17 17 17 17 18 20 20 20 19 17 16 14 12 9 9 10 12 15 18 23 28 32 36 41 43 42 40 38 38 37 36 36 36 36 37 38 39 39 39 39 38 37 35 34 32 30 28 27 26 24 23 23 21 18 18 16 15 17 21 22 19 17 19 22 21 18 15 15 17 19 20 22 23 23 23 23 24 25 25 23 22 20 19 18 18
15 15 14 15 16 17 18 18 16 14 13 13 11 8 6 6 8 10 11 15 20 25 27 30 34 38 38 36 35 36 36 37 37 37 36 37 37 38 39 38 37 35 33 32 30 28 25 23 21 19 17 16 15 14 14 15 16 17 17 16 15 14 15 15 14 14 15 17 19 19 20 21 22 23 23 23 23 22 21 20 20 19 18 17 16
13 13 12 13 13 14 15 15 14 12 12 11 9 8 6 5 4 5 8 10 14 18 20 21 23 28 34 37 37 37 38 38 37 37 36 36 36 35 36 37 36 34 32 30 27 24 20 17 15 13 11 11 11 12 13 14 15 14 13 12 12 11 11 11 13 14 15 16 17 18 18 20 21 21 21 20 19 18 18 18 18 18 17 16 16
11 11 11 11 11 12 13 13 12 11 12 12 10 8 6 5 3 1 3 7 10 13 15 17 17 19 23 30 35 36 36 36 35 34 34 35 33 31 30 29 29 29 27 25 22 19 17 15 13 12 12 13 13 14 14 14 13 13 12 12 12 11 11 12 14 14 14 14 15 15 15 16 17 18 18 17 17 17 17 17 17 17 17 16 16
Wind_Direction
224 226 227 228 231 233 234 233 232 230 228 226 226 226 227 228 228 230 231 232 230 230 231 233 234 236 239 239 238 239 238 235 232 233 235 234 233 232 230 231 233 235 235 236 236 233 226 223 224 225 228 229 229 234 242 249 255 258 266 276 280 280 279 281 285 285 281 280 287 298 311 314 317 325 330 335 339 339 339 331 319 317 328 340 346
224 226 227 228 230 233 235 235 234 232 230 228 227 227 228 228 229 230 233 235 235 235 237 239 239 239 240 242 242 242 241 239 235 234 236 237 236 234 232 232 233 235 236 238 239 238 234 227 224 226 230 231 231 235 242 248 253 258 267 273 272 272 275 279 286 289 287 279 283 297 316 317 316 330 335 335 337 342 346 340 324 324 338 346 347
224 226 227 228 230 232 234 235 235 235 233 231 229 228 229 229 229 230 233 235 238 240 241 243 244 242 241 243 244 244 244 242 239 237 237 238 238 238 237 236 235 235 236 238 239 240 241 236 229 226 229 230 231 234 240 247 253 259 265 267 267 268 274 280 284 290 293 292 294 306 320 320 319 329 335 335 335 339 344 342 335 337 345 348 350
224 225 227 229 230 232 233 235 236 236 235 233 231 229 229 230 230 231 233 236 239 242 244 246 247 245 244 244 245 246 246 245 243 242 240 239 240 240 240 241 240 239 238 238 237 239 242 242 237 231 231 233 235 236 241 246 251 258 262 264 269 271 274 278 280 286 292 295 302 313 318 319 322 327 332 332 334 337 340 339 337 341 347 351 352
223 225 226 228 230 231 233 235 236 237 236 235 233 232 231 231 231 232 234 236 238 241 244 246 248 248 248 247 247 248 248 247 246 246 245 243 242 241 242 243 244 244 243 241 239 239 241 243 242 239 237 239 242 244 246 249 252 258 263 266 270 274 275 276 278 281 286 291 299 307 311 314 317 324 330 329 330 335 336 336 339 342 347 355 353
222 224 226 228 230 232 233 234 236 237 238 237 235 234 233 233 234 234 234 236 238 240 242 245 247 249 250 251 252 252 251 250 248 247 247 246 245 245 244 244 244 246 247 246 245 242 242 243 244 244 244 245 247 249 252 255 259 263 266 268 271 274 276 276 277 279 281 287 294 300 306 310 312 320 328 327 329 333 333 332 338 341 343 353 353
221 223 226 228 230 232 233 235 236 238 239 239 238 237 236 236 236 236 237 237 238 240 242 244 246 248 251 253 254 255 256 254 251 249 247 246 247 247 246 245 245 246 247 249 249 248 246 245 246 246 248 251 252 255 257 261 264 265 267 269 272 274 275 276 276 276 279 284 289 295 301 304 309 317 323 325 329 332 332 330 333 337 338 345 346
220 223 225 227 230 233 235 236 238 239 240 241 241 240 238 238 238 239 239 240 240 241 243 245 247 249 251 252 254 255 256 256 255 252 249 247 246 247 248 248 247 247 247 248 249 251 251 250 250 250 251 254 256 258 261 264 266 268 269 271 273 275 276 276 276 276 279 282 287 291 296 299 305 313 318 322 327 330 331 328 327 330 332 334 337
221 223 225 227 231 233 236 237 239 240 240 241 242 242 241 240 240 240 241 241 242 243 244 246 248 249 251 252 253 254 255 255 257 256 253 249 246 246 247 249 249 249 249 248 249 251 251 252 253 253 254 255 257 260 262 265 268 270 270 271 273 275 276 277 278 279 280 282 285 290 293 295 302 310 314 321 327 329 328 323 321 323 323 325 329
222 224 226 228 232 234 236 237 239 240 241 241 242 243 243 243 242 242 242 242 244 245 246 247 248 250 251 252 252 253 254 255 257 258 256 252 248 247 247 248 249 250 250 250 250 251 251 252 252 253 255 256 257 259 261 264 266 268 270 271 272 274 276 276 276 277 279 282 285 291 293 293 299 309 315 322 328 326 321 318 316 316 316 316 318
225 226 227 230 233 235 236 237 239 240 241 242 243 244 245 245 245 244 244 244 244 245 246 248 249 250 251 252 253 253 253 255 257 258 258 255 252 249 248 248 249 250 251 252 252 253 253 253 253 254 255 255 255 257 258 261 263 265 268 268 270 273 273 270 269 270 274 280 284 290 292 293 298 308 317 324 326 320 315 313 311 309 309 309 312
228 229 231 233 235 236 237 238 239 240 242 243 244 246 246 247 246 246 246 246 245 245 246 247 248 250 251 252 253 254 255 256 257 258 258 256 254 252 251 251 250 250 251 252 253 254 254 254 255 255 255 256 256 256 257 258 260 262 265 266 269 271 268 262 261 265 271 278 283 285 287 291 297 307 318 323 321 315 310 307 304 302 302 304 309
231 232 234 236 237 238 239 240 240 242 243 245 246 246 247 247 247 247 248 248 247 247 247 247 248 249 250 252 253 254 256 256 257 257 256 255 254 254 253 253 254 253 252 252 253 254 254 255 255 256 257 257 258 258 259 259 259 261 264 267 268 270 266 260 258 262 269 276 280 281 283 288 294 303 314 316 314 311 305 299 296 295 296 301 308
231 234 237 238 239 239 240 241 242 244 245 246 246 247 247 248 248 249 249 249 249 248 248 247 247 248 249 250 252 254 255 256 256 256 255 254 253 253 253 254 255 256 255 254 253 253 253 254 255 256 258 259 260 261 262 263 264 265 267 268 268 268 267 262 259 261 266 272 278 280 282 285 289 296 303 304 305 305 299 293 291 291 294 299 303
225 229 234 237 239 239 240 241 243 244 246 246 246 247 248 249 249 250 250 249 249 249 249 248 247 248 249 250 252 253 254 255 256 255 254 253 253 253 253 254 255 256 256 255 254 254 254 254 255 256 257 258 259 261 263 265 267 269 269 269 268 267 266 264 262 261 263 269 276 279 281 283 284 287 290 291 294 298 296 290 288 289 292 295 297
219 222 227 232 235 237 239 241 243 244 245 246 246 246 247 248 250 250 250 250 250 250 249 248 247 248 249 249 250 252 253 254 255 255 254 253 253 253 253 253 254 255 256 256 255 254 253 254 255 255 255 256 257 257 260 263 266 268 269 268 268 267 266 265 264 262 261 265 271 276 279 282 282 282 282 282 284 289 291 286 284 286 288 290 292
214 218 223 227 232 235 237 239 241 244 245 246 246 247 248 249 250 250 249 249 249 249 249 249 248 247 248 249 250 251 253 253 253 254 254 254 253 253 252 252 253 254 255 255 255 255 254 253 254 255 255 255 255 255 257 260 263 265 267 268 269 270 268 266 266 264 262 264 269 272 275 278 280 280 279 277 278 282 284 282 281 283 283 284 287
208 213 217 222 230 236 239 241 242 244 246 247 248 249 249 250 251 251 250 249 250 251 251 251 250 248 248 248 249 251 252 253 253 254 254 254 254 253 252 252 253 254 254 255 255 255 255 254 254 255 255 254 253 253 254 257 260 262 264 267 271 272 270 271 272 271 269 268 270 272 274 277 278 277 276 276 276 277 277 277 279 278 276 278 283
197 204 210 216 224 232 239 243 245 247 248 250 251 251 250 251 252 252 251 250 251 252 252 252 252 251 249 248 248 250 251 252 253 253 254 254 254 254 253 253 253 253 253 254 255 256 256 255 255 255 255 253 251 251 253 257 260 260 262 267 270 270 271 274 278 278 277 276 274 274 275 275 274 273 272 272 272 272 273 275 274 270 270 275 279
200 203 206 210 217 225 232 237 241 245 249 251 252 252 252 252 252 252 251 251 251 251 250 251 252 252 252 251 250 249 250 250 251 252 252 253 253 253 253 253 253 252 252 253 254 254 255 255 255 255 254 253 251 251 253 257 259 261 263 266 267 268 271 276 279 280 281 280 279 278 276 274 272 270 269 269 269 270 272 274 269 265 267 272 275
230 223 218 215 219 226 233 237 237 239 245 250 251 252 252 252 252 252 252 251 250 250 250 250 250 252 252 252 251 251 250 250 249 250 251 251 252 252 252 253 253 253 253 252 253 253 253 254 254 253 254 254 253 253 256 259 261 262 263 265 266 268 272 275 276 278 280 279 278 279 279 278 276 273 271 271 271 273 275 274 267 262 264 268 273
268 253 239 231 229 232 236 239 237 236 239 244 247 249 251 252 252 252 251 250 249 249 250 250 249 250 251 251 252 252 251 251 250 250 250 251 251 251 251 252 253 254 255 254 253 252 253 254 254 254 255 257 257 257 260 262 264 265 266 268 271 273 274 275 277 278 277 277 276 276 277 279 279 277 275 274 275 277 278 274 267 263 265 269 273
288 273 258 246 240 240 240 240 240 238 236 238 242 245 247 250 252 251 249 248 248 248 249 249 249 248 249 250 251 252 252 252 252 251 251 251 252 252 252 252 253 254 255 256 255 255 255 257 258 259 260 261 261 261 263 265 267 269 271 274 276 277 277 276 277 277 276 276 275 274 275 277 279 279 278 277 278 281 281 277 270 265 266 270 272
299 284 273 261 250 245 243 241 241 239 236 236 239 243 244 246 250 251 248 246 246 246 247 248 248 247 247 248 249 251 251 252 253 253 253 252 252 253 253 253 253 254 255 257 258 258 258 259 260 262 264 264 265 267 267 268 270 272 275 276 277 277 276 275 275 275 274 273 272 272 273 275 277 278 279 280 282 283 281 277 271 268 270 274 274
308 296 287 280 269 258 250 245 243 241 238 235 235 238 242 243 245 247 246 245 245 245 246 247 247 247 248 248 248 249 251 252 253 253 253 253 253 254 254 254 254 254 255 257 258 259 260 261 263 264 266 267 268 269 269 269 271 274 275 275 274 273 272 272 272 271 269 268 268 269 271 272 275 277 279 280 281 280 278 277 275 273 275 278 275
311 304 298 293 287 277 266 256 251 246 243 241 238 238 240 241 243 244 244 244 245 245 246 246 246 247 247 247 248 248 250 252 253 253 253 253 253 253 253 254 255 255 256 257 258 260 261 262 263 264 265 266 267 268 269 270 271 273 272 271 270 269 269 269 269 269 269 268 269 269 270 271 274 275 276 276 276 275 275 276 276 275 277 278 274
312 307 302 298 294 289 278 268 261 255 249 246 246 243 241 241 242 243 243 243 243 243 243 243 244 245 246 246 246 247 249 251 252 253 252 252 252 252 252 253 254 254 254 255 256 257 258 260 260 261 262 263 264 266 268 269 269 270 270 268 268 268 268 269 269 270 269 269 268 268 268 269 269 268 269 270 270 270 271 271 272 273 275 273 264
313 309 305 301 298 292 282 272 266 261 255 249 248 247 245 242 241 242 243 243 242 242 242 243 244 246 248 247 245 245 248 250 252 252 251 252 253 252 252 252 252 252 252 253 253 255 256 257 257 257 257 259 262 264 266 268 268 269 268 267 266 267 269 270 270 270 269 267 265 264 262 261 260 260 262 262 263 264 266 268 270 271 270 263 253
317 313 309 305 301 295 284 274 268 265 260 253 250 249 249 248 246 245 246 245 245 246 247 247 249 251 251 251 248 246 247 250 253 255 254 255 256 255 253 253 252 252 253 254 255 256 255 255 255 255 255 257 260 263 264 265 266 266 265 264 264 266 268 269 270 271 271 268 264 261 258 257 255 255 255 256 258 260 262 265 266 263 256 250 246
319 316 312 308 305 299 288 277 271 268 265 260 256 254 253 254 253 252 251 250 250 250 251 251 253 254 254 254 254 254 255 258 260 260 258 258 258 257 256 256 255 255 256 256 256 255 254 253 254 254 255 257 259 260 261 261 261 261 260 261 263 265 268 269 270 272 273 270 265 261 258 256 253 251 252 252 253 255 257 260 260 253 245 241 241
319 316 313 310 306 302 294 283 275 271 270 267 264 260 258 258 257 255 254 253 253 253 253 254 255 255 254 255 257 260 261 262 261 259 258 259 258 258 258 257 256 256 256 256 255 254 253 253 254 254 254 256 256 257 258 257 257 258 259 261 264 265 266 267 268 270 271 270 267 263 259 256 254 251 250 251 251 250 250 251 251 246 240 238 238
319 315 312 310 307 303 298 290 280 273 272 272 269 265 263 262 259 256 253 251 250 250 252 253 253 253 254 254 256 258 260 260 259 257 257 257 258 258 258 257 256 255 254 253 252 252 252 253 255 255 255 255 255 255 255 255 255 257 259 261 262 263 263 265 265 265 264 264 265 262 258 255 255 253 251 251 250 248 246 246 246 243 239 236 235
321 315 312 309 307 304 301 295 285 273 269 270 271 270 267 264 262 260 257 253 250 249 249 251 252 253 254 254 255 257 259 261 260 259 258 258 258 258 257 257 255 254 252 250 250 250 251 252 253 255 255 256 255 255 255 256 256 257 259 261 262 263 265 267 267 264 261 260 261 262 258 254 253 253 251 250 249 248 246 246 246 242 237 231 228
326 316 311 307 305 303 301 297 290 279 268 263 264 268 270 267 265 264 260 255 251 249 249 249 249 250 251 253 254 255 258 259 260 259 259 259 260 259 257 255 252 250 249 249 249 249 250 251 252 253 254 254 254 253 254 255 256 257 259 261 263 265 267 268 267 266 264 260 258 260 258 252 249 250 250 249 250 250 248 245 243 239 233 227 224
338 322 311 303 299 297 296 294 291 285 275 264 258 259 264 267 266 264 261 257 255 254 254 254 253 251 251 251 251 252 254 256 257 257 257 257 258 258 255 251 249 248 247 247 248 248 249 250 252 253 253 252 251 251 253 254 256 258 260 262 263 264 265 264 263 263 262 258 255 257 259 253 247 248 250 250 250 249 244 239 240 238 233 227 225
351 338 321 306 295 290 288 287 286 284 279 271 261 254 255 260 260 257 255 253 252 253 254 255 255 253 252 251 250 250 251 253 255 255 255 256 256 255 252 249 248 248 248 248 249 249 250 251 252 251 251 251 251 252 254 256 258 261 262 264 265 265 262 259 258 257 256 255 254 255 255 251 246 246 248 250 251 249 240 234 235 235 230 227 225
355 352 338 321 304 292 284 280 278 278 277 274 267 257 251 252 255 254 251 249 248 248 249 249 250 250 250 251 251 250 250 251 252 252 252 253 252 252 251 250 250 250 251 251 251 250 251 252 251 250 250 252 254 256 257 258 260 262 262 263 264 262 256 253 253 252 250 250 250 249 248 246 243 243 245 247 248 245 238 234 236 234 228 224 224
354 356 351 337 320 305 293 283 276 272 271 270 269 263 255 251 252 254 254 251 249 248 248 248 248 249 250 253 253 252 250 250 249 249 249 249 250 250 250 249 250 251 252 253 252 252 252 252 251 251 252 255 258 259 259 260 261 261 262 262 262 259 255 251 250 248 246 244 244 244 244 243 240 239 242 244 245 242 236 235 236 232 225 223 226
350 351 351 347 336 322 307 295 284 276 271 267 264 263 259 253 251 254 256 255 251 249 248 249 249 250 251 253 252 250 248 248 248 249 249 249 250 251 250 249 250 251 251 252 252 253 253 254 253 253 255 256 259 259 259 259 260 260 261 261 259 256 253 250 247 246 244 242 240 240 240 238 236 237 239 240 241 240 235 232 232 229 225 226 230
347 347 346 346 344 335 321 307 294 285 278 270 263 259 257 254 251 252 255 256 255 252 250 249 250 252 254 254 252 249 247 247 248 250 250 250 251 252 252 250 250 250 251 252 252 253 254 255 254 254 255 256 258 258 257 257 257 259 261 259 255 251 249 246 243 242 243 243 241 240 238 236 236 237 238 236 235 235 232 230 229 227 225 227 231
346 347 345 343 342 337 329 318 303 290 282 274 265 258 254 252 250 251 253 254 255 255 253 251 251 252 254 255 255 253 250 247 247 250 252 252 252 252 252 251 251 252 252 252 253 253 254 253 253 254 255 256 256 256 255 254 252 250 250 250 248 244 241 239 238 238 240 243 243 242 240 238 238 239 240 238 234 230 227 227 226 224 224 227 229
341 347 346 344 341 337 331 324 312 296 283 273 266 259 255 252 251 252 252 253 255 256 256 255 253 252 252 253 254 254 251 248 248 250 253 256 254 251 250 250 250 251 251 251 251 251 251 251 252 252 254 256 257 255 252 248 240 232 233 235 234 233 233 233 234 235 237 240 243 242 241 240 239 240 242 242 236 227 224 224 223 223 224 226 224
335 341 344 344 342 339 334 326 316 302 286 274 265 261 258 256 255 255 255 255 258 258 258 256 255 253 251 251 252 251 250 249 248 250 254 256 255 251 249 247 247 248 249 249 249 249 249 251 252 252 255 260 258 245 234 228 219 214 219 222 221 224 229 229 229 232 235 239 241 240 238 237 236 236 239 238 231 223 219 219 220 221 222 222 222
328 333 340 343 342 340 336 329 317 304 292 280 270 266 264 263 262 260 259 259 262 262 260 257 256 254 252 250 250 248 248 249 250 251 253 253 252 250 248 246 245 246 247 247 247 247 248 250 251 251 254 255 236 206 195 194 191 193 206 216 222 227 231 231 232 237 240 241 238 233 229 228 228 229 230 227 221 218 217 217 217 218 218 220 223
325 330 338 343 342 340 338 333 323 310 299 289 281 275 273 270 267 263 261 262 265 266 263 259 256 254 253 250 248 247 248 248 249 249 248 248 247 247 246 244 243 244 245 245 246 245 245 246 247 247 247 240 215 193 185 183 182 184 195 210 221 229 237 244 247 245 241 234 227 223 221 221 220 220 219 216 214 214 215 214 214 217 219 222 225
325 330 339 344 344 342 341 337 330 320 309 300 293 288 285 279 271 265 263 264 266 267 264 260 256 253 251 248 247 247 248 247 246 244 242 242 243 243 243 242 241 242 242 242 241 241 240 242 244 243 241 238 225 206 197 194 192 191 196 202 208 221 238 249 251 246 237 225 216 214 215 215 212 211 211 210 208 209 211 212 215 220 223 225 227
327 331 340 344 345 345 343 341 337 330 320 311 303 296 289 280 269 259 254 254 257 260 259 255 250 247 245 244 243 243 242 241 240 238 237 237 238 238 238 238 237 237 237 236 235 236 237 239 242 242 243 245 245 237 228 221 212 203 201 200 200 212 229 235 236 235 228 216 207 205 207 209 211 211 211 208 205 207 210 214 219 225 229 230 231
329 334 343 347 349 350 349 347 344 340 335 329 318 299 273 254 244 239 233 231 234 240 244 244 242 240 237 235 234 233 232 232 231 231 231 231 231 231 230 229 228 227 228 228 229 230 232 234 237 238 240 242 242 237 230 224 214 204 201 198 196 203 215 220 220 217 210 203 201 201 204 208 211 211 209 206 206 209 215 220 225 229 231 231 231
332 338 346 352 356 359 358 355 353 355 354 350 342 327 297 250 223 215 212 211 213 218 223 227 230 231 230 228 227 226 225 223 220 218 218 219 220 221 221 219 217 216 218 219 219 219 219 220 224 226 227 226 223 216 209 203 197 193 192 189 185 189 196 198 194 191 193 197 199 199 199 201 202 201 202 204 208 214 220 225 227 227 227 227 231
338 343 350 358 4 8 6 1 2 11 15 12 8 4 350 319 258 206 185 182 191 199 201 201 204 212 217 218 218 216 213 212 210 208 207 208 208 208 208 208 208 207 207 206 204 201 198 198 200 200 197 194 190 186 183 182 181 179 179 178 176 175 174 172 173 179 188 194 196 195 195 197 199 200 202 206 210 214 218 221 223 224 226 227 230
345 349 356 4 12 18 17 11 11 22 33 35 35 39 43 35 11 321 184 164 156 163 175 179 176 179 189 197 200 200 200 202 202 203 203 204 203 198 193 192 192 191 188 184 181 178 175 173 171 170 167 165 164 165 168 170 169 168 169 172 174 174 173 172 173 175 180 185 188 189 190 193 196 199 200 201 203 207 210 214 219 223 226 228 229
Height
1525 1527 1530 1532 1535 1537 1540 1542 1545 1547 1550 1552 1553 1555 1558 1560 1562 1565 1566 1568 1570 1571 1572 1574 1575 1576 1577 1578 1579 1580 1581 1582 1583 1584 1584 1585 1586 1587 1588 1589 1589 1590 1590 1591 1591 1592 1593 1593 1595 1596 1597 1598 1598 1598 1599 1600 1600 1601 1601 1602 1602 1602 1602 1602 1601 1600 1600 1600 1600 1600 1599 1598 1598 1597 1596 1595 1595 1594 1593 1592 1590 1590 1589 1588 1587
1522 1525 1527 1530 1532 1535 1537 1540 1543 1545 1547 1549 1551 1553 1555 1558 1560 1563 1564 1566 1568 1569 1571 1572 1574 1575 1575 1576 1577 1579 1580 1581 1582 1582 1583 1584 1585 1586 1587 1588 1588 1589 1590 1590 1591 1592 1592 1593 1593 1595 1596 1597 1597 1598 1598 1599 1600 1600 1601 1601 1601 1602 1601 1601 1600 1599 1599 1599 1599 1599 1598 1598 1597 1596 1595 1594 1594 1593 1592 1591 1590 1589 1589 1587 1586
1519 1522 1525 1527 1530 1533 1535 1538 1540 1543 1545 1547 1549 1551 1553 1555 1558 1560 1562 1564 1566 1568 1569 1571 1572 1573 1574 1575 1576 1577 1578 1579 1580 1581 1582 1583 1584 1585 1586 1587 1588 1588 1589 1590 1591 1591 1592 1592 1593 1594 1595 1596 1596 1597 1598 1598 1599 1599 1600 1600 1601 1601 1601 1600 1600 1599 1598 1598 1598 1598 1597 1597 1596 1596 1595 1594 1593 1592 1592 1591 1590 1589 1588 1587 1585
1517 1520 1522 1525 1528 1530 1533 1535 1537 1539 1541 1544 1546 1548 1551 1553 1555 1557 1560 1562 1564 1565 1567 1569 1570 1571 1572 1573 1574 1575 1576 1578 1579 1580 1581 1582 1583 1584 1585 1586 1587 1588 1588 1589 1590 1591 1591 1592 1592 1594 1594 1595 1596 1597 1597 1598 1598 1599 1599 1600 1600 1600 1600 1599 1599 1598 1597 1596 1596 1597 1596 1596 1595 1595 1594 1593 1593 1592 1591 1590 1589 1588 1587 1586 1584
1514 1517 1520 1523 1525 1528 1530 1532 1534 1536 1538 1541 1543 1546 1548 1550 1553 1555 1557 1559 1561 1563 1565 1566 1568 1569 1570 1571 1572 1574 1575 1576 1577 1578 1579 1580 1581 1582 1583 1584 1585 1586 1587 1588 1589 1590 1590 1591 1592 1593 1594 1594 1595 1596 1597 1597 1598 1598 1598 1599 1599 1599 1599 1598 1598 1597 1596 1595 1595 1595 1595 1595 1594 1594 1594 1593 1592 1591 1591 1590 1588 1587 1586 1585 1583
1512 1515 1518 1520 1523 1525 1527 1529 1531 1533 1536 1538 1540 1543 1545 1548 1550 1551 1554 1556 1558 1560 1562 1563 1565 1566 1567 1569 1570 1572 1573 1574 1575 1576 1577 1579 1580 1581 1582 1583 1584 1585 1586 1587 1588 1589 1590 1590 1591 1592 1593 1593 1594 1595 1596 1596 1597 1597 1597 1597 1598 1598 1597 1597 1597 1596 1595 1595 1594 1594 1594 1594 1593 1593 1593 1592 1591 1590 1589 1588 1587 1586 1584 1583 1582
1510 1512 1515 1517 1520 1522 1524 1527 1529 1531 1533 1535 1538 1540 1542 1544 1546 1548 1551 1553 1555 1557 1558 1560 1562 1563 1565 1566 1568 1569 1571 1572 1573 1574 1575 1577 1578 1579 1580 1581 1582 1583 1584 1585 1586 1588 1588 1589 1590 1591 1592 1592 1593 1594 1595 1595 1596 1596 1596 1596 1596 1596 1596 1596 1596 1595 1594 1594 1593 1593 1593 1593 1592 1592 1592 1591 1590 1589 1587 1586 1585 1584 1583 1582 1581
1507 1510 1513 1515 1517 1519 1522 1525 1527 1529 1531 1533 1535 1537 1539 1541 1543 1545 1547 1549 1551 1553 1555 1557 1558 1560 1562 1563 1565 1566 1568 1569 1570 1572 1573 1574 1576 1577 1578 1580 1580 1581 1582 1583 1584 1585 1586 1587 1588 1589 1590 1591 1591 1592 1593 1594 1594 1594 1595 1595 1595 1595 1594 1594 1594 1594 1593 1593 1592 1592 1592 1592 1591 1591 1591 1590 1589 1588 1586 1585 1583 1583 1581 1581 1580
1505 1508 1510 1511 1514 1517 1520 1522 1524 1527 1529 1530 1532 1534 1536 1538 1540 1542 1544 1545 1547 1549 1551 1553 1555 1557 1558 1560 1562 1563 1564 1565 1567 1569 1571 1572 1573 1575 1576 1578 1579 1580 1580 1581 1582 1583 1584 1585 1586 1587 1588 1589 1590 1590 1591 1592 1592 1592 1593 1593 1593 1593 1593 1593 1593 1592 1592 1591 1591 1591 1591 1590 1590 1590 1589 1589 1588 1586 1585 1583 1582 1581 1580 1579 1578
1502 1504 1506 1508 1511 1514 1517 1519 1521 1523 1525 1527 1529 1531 1533 1535 1537 1538 1540 1542 1544 1546 1548 1550 1551 1553 1554 1556 1558 1560 1561 1562 1564 1566 1568 1569 1571 1572 1574 1575 1577 1578 1579 1579 1580 1581 1582 1583 1584 1585 1586 1587 1588 1588 1589 1590 1590 1590 1591 1591 1591 1591 1591 1591 1591 1591 1590 1590 1590 1590 1589 1589 1589 1589 1588 1587 1586 1585 1583 1582 1580 1579 1578 1577 1577
1500 1502 1504 1506 1509 1512 1514 1516 1518 1520 1522 1524 1526 1528 1530 1532 1533 1535 1537 1538 1540 1542 1544 1545 1547 1549 1551 1552 1554 1556 1557 1559 1561 1563 1565 1566 1568 1569 1571 1572 1574 1575 1576 1577 1578 1579 1580 1581 1581 1582 1583 1584 1585 1586 1587 1588 1588 1588 1589 1589 1589 1590 1589 1589 1589 1589 1589 1588 1588 1588 1588 1587 1587 1587 1587 1586 1585 1584 1582 1581 1579 1578 1577 1576 1575
1497 1500 1502 1505 1507 1508 1511 1513 1515 1517 1519 1521 1523 1525 1527 1528 1530 1532 1533 1534 1537 1538 1540 1541 1543 1545 1547 1548 1550 1552 1553 1555 1557 1559 1561 1563 1565 1567 1568 1569 1571 1572 1573 1574 1575 1576 1577 1578 1579 1580 1581 1582 1583 1584 1584 1585 1586 1586 1587 1587 1587 1588 1588 1588 1587 1587 1587 1587 1587 1587 1586 1586 1585 1586 1586 1585 1583 1582 1581 1579 1578 1576 1575 1575 1574
1495 1497 1499 1501 1503 1505 1507 1509 1511 1513 1515 1518 1520 1522 1523 1524 1526 1528 1529 1531 1533 1534 1536 1537 1539 1541 1543 1544 1546 1547 1549 1552 1554 1556 1558 1560 1562 1563 1565 1566 1567 1568 1570 1571 1572 1573 1574 1575 1576 1577 1578 1579 1580 1581 1582 1583 1584 1584 1585 1585 1585 1585 1586 1586 1586 1586 1586 1585 1585 1584 1584 1584 1584 1584 1584 1584 1582 1581 1579 1578 1577 1575 1574 1573 1573
1491 1493 1495 1497 1499 1502 1504 1506 1508 1510 1512 1515 1517 1518 1519 1521 1522 1524 1526 1528 1529 1530 1531 1533 1535 1537 1538 1540 1542 1544 1545 1548 1550 1552 1554 1556 1558 1560 1561 1563 1564 1565 1566 1567 1568 1569 1571 1572 1572 1574 1575 1576 1577 1578 1579 1580 1581 1581 1582 1582 1582 1583 1583 1583 1584 1584 1584 1584 1583 1583 1583 1583 1582 1582 1582 1582 1580 1579 1578 1576 1575 1574 1573 1572 1572
1488 1490 1492 1494 1496 1498 1500 1502 1504 1507 1509 1511 1513 1514 1516 1517 1519 1521 1523 1524 1525 1526 1528 1529 1530 1532 1534 1536 1538 1539 1541 1544 1546 1548 1550 1552 1554 1556 1558 1559 1560 1561 1562 1563 1564 1565 1567 1568 1569 1570 1571 1572 1574 1575 1576 1577 1577 1578 1578 1579 1579 1580 1580 1580 1581 1581 1582 1582 1581 1581 1580 1580 1580 1579 1580 1579 1578 1578 1576 1575 1573 1572 1571 1570 1570
1486 1488 1490 1492 1494 1495 1497 1499 1501 1503 1506 1508 1509 1511 1513 1514 1516 1518 1519 1520 1521 1522 1524 1525 1526 1528 1530 1532 1534 1535 1537 1540 1542 1544 1546 1548 1551 1552 1554 1555 1556 1557 1558 1559 1560 1561 1562 1564 1564 1566 1567 1568 1570 1571 1573 1573 1574 1574 1575 1575 1576 1576 1576 1577 1578 1579 1579 1579 1579 1578 1578 1578 1577 1576 1576 1576 1576 1575 1574 1573 1571 1571 1570 1568 1567
1482 1484 1487 1489 1491 1493 1495 1496 1498 1500 1502 1504 1505 1507 1509 1511 1513 1514 1515 1516 1517 1518 1519 1521 1522 1524 1526 1528 1529 1531 1533 1535 1538 1540 1542 1544 1546 1548 1549 1550 1551 1552 1553 1555 1556 1557 1558 1559 1560 1562 1563 1564 1566 1568 1569 1570 1570 1571 1571 1572 1573 1573 1573 1574 1575 1576 1576 1576 1576 1575 1575 1575 1574 1574 1573 1573 1573 1573 1572 1570 1569 1569 1567 1566 1565
1479 1481 1483 1485 1488 1490 1492 1494 1495 1497 1498 1499 1501 1503 1505 1507 1509 1510 1511 1512 1513 1514 1516 1517 1518 1520 1521 1523 1525 1526 1528 1531 1533 1535 1537 1540 1541 1543 1544 1546 1547 1547 1549 1550 1551 1552 1553 1555 1556 1557 1559 1560 1562 1564 1565 1566 1567 1567 1568 1568 1569 1569 1569 1570 1571 1572 1573 1573 1572 1572 1572 1572 1571 1571 1570 1570 1570 1570 1568 1567 1566 1566 1564 1563 1563
1476 1478 1480 1482 1484 1486 1489 1490 1492 1493 1494 1495 1497 1499 1501 1503 1505 1507 1508 1509 1510 1511 1512 1513 1514 1515 1516 1518 1520 1522 1523 1526 1529 1530 1532 1534 1536 1538 1539 1541 1542 1543 1544 1545 1547 1548 1549 1550 1552 1553 1555 1557 1558 1560 1561 1562 1563 1564 1565 1565 1565 1565 1566 1567 1568 1568 1569 1569 1569 1569 1569 1568 1568 1567 1567 1567 1567 1566 1565 1564 1564 1563 1561 1561 1561
1473 1475 1477 1478 1480 1482 1484 1486 1487 1489 1490 1492 1494 1496 1498 1499 1501 1503 1504 1505 1507 1508 1509 1509 1510 1511 1512 1514 1515 1517 1518 1520 1523 1525 1527 1529 1531 1533 1534 1535 1536 1538 1540 1541 1542 1543 1544 1546 1547 1549 1551 1553 1555 1556 1557 1558 1559 1560 1561 1561 1561 1561 1563 1564 1565 1565 1565 1566 1566 1566 1565 1565 1565 1564 1564 1563 1563 1563 1562 1561 1561 1560 1559 1559 1559
1470 1472 1473 1475 1477 1479 1481 1482 1483 1484 1486 1488 1490 1492 1493 1495 1497 1499 1500 1502 1503 1504 1504 1505 1506 1507 1508 1510 1510 1511 1513 1515 1517 1519 1521 1523 1525 1527 1529 1530 1531 1533 1535 1537 1538 1539 1540 1541 1543 1545 1547 1549 1551 1553 1554 1555 1556 1556 1557 1557 1557 1559 1560 1561 1561 1562 1562 1562 1562 1562 1562 1561 1561 1561 1560 1560 1560 1559 1559 1558 1558 1558 1557 1557 1557
1468 1469 1470 1472 1474 1476 1478 1479 1479 1480 1481 1483 1485 1487 1489 1492 1493 1495 1497 1498 1499 1500 1501 1501 1502 1503 1504 1505 1506 1506 1508 1509 1511 1513 1515 1518 1520 1522 1523 1524 1527 1529 1530 1532 1533 1534 1535 1537 1539 1542 1544 1546 1548 1549 1550 1551 1552 1553 1553 1554 1555 1556 1557 1557 1558 1559 1559 1559 1558 1558 1558 1557 1557 1557 1557 1557 1557 1557 1557 1556 1556 1556 1555 1555 1554
1466 1466 1467 1468 1470 1472 1474 1475 1476 1477 1478 1479 1481 1483 1485 1487 1489 1491 1492 1494 1495 1496 1497 1497 1498 1499 1499 1500 1501 1502 1503 1504 1506 1508 1510 1512 1514 1516 1518 1520 1523 1525 1525 1526 1528 1530 1532 1534 1536 1538 1541 1543 1544 1546 1547 1548 1549 1550 1551 1551 1552 1553 1553 1554 1554 1555 1555 1554 1554 1553 1553 1553 1554 1554 1554 1554 1554 1554 1554 1554 1554 1554 1553 1553 1552
1464 1464 1464 1465 1467 1469 1470 1472 1473 1474 1474 1475 1477 1478 1481 1483 1484 1486 1488 1489 1490 1491 1492 1493 1494 1494 1494 1495 1496 1497 1499 1500 1501 1503 1505 1507 1509 1511 1513 1515 1518 1520 1520 1521 1523 1525 1528 1530 1533 1535 1537 1539 1541 1543 1545 1546 1546 1547 1547 1548 1549 1549 1550 1550 1550 1550 1550 1549 1549 1548 1548 1549 1550 1550 1551 1552 1552 1552 1552 1551 1551 1551 1551 1551 1550
1460 1460 1461 1462 1463 1465 1467 1468 1469 1470 1471 1472 1473 1474 1476 1478 1480 1481 1483 1484 1485 1486 1487 1488 1489 1489 1490 1490 1491 1493 1495 1496 1497 1498 1500 1502 1503 1505 1507 1510 1512 1515 1516 1517 1519 1521 1524 1527 1529 1532 1534 1536 1538 1540 1541 1542 1543 1543 1544 1544 1545 1545 1546 1546 1546 1545 1544 1544 1543 1543 1544 1545 1546 1547 1548 1549 1549 1549 1549 1548 1548 1549 1549 1548 1547
1454 1455 1456 1457 1459 1461 1463 1464 1465 1465 1467 1468 1469 1470 1472 1473 1475 1476 1478 1479 1479 1480 1481 1483 1484 1484 1484 1485 1487 1489 1490 1491 1492 1493 1494 1496 1498 1499 1502 1504 1507 1510 1511 1512 1515 1517 1520 1523 1526 1528 1530 1532 1534 1536 1537 1538 1539 1539 1540 1540 1541 1541 1541 1542 1541 1541 1539 1539 1539 1539 1540 1541 1543 1544 1545 1545 1545 1545 1546 1546 1546 1546 1546 1545 1545
1452 1452 1453 1454 1455 1457 1458 1459 1460 1460 1461 1463 1464 1465 1467 1469 1470 1471 1472 1473 1474 1475 1476 1478 1478 1479 1479 1481 1484 1485 1486 1486 1486 1487 1488 1490 1491 1494 1496 1499 1502 1504 1506 1508 1510 1513 1515 1519 1522 1524 1526 1528 1530 1531 1532 1533 1534 1535 1535 1536 1536 1537 1537 1538 1537 1536 1535 1535 1535 1535 1536 1538 1539 1540 1541 1541 1541 1542 1542 1542 1543 1543 1543 1543 1542
1451 1450 1450 1451 1452 1453 1454 1456 1456 1456 1457 1458 1459 1460 1462 1464 1465 1465 1465 1467 1468 1469 1471 1472 1473 1474 1475 1477 1479 1481 1481 1480 1480 1481 1483 1485 1486 1489 1491 1493 1496 1498 1500 1502 1506 1509 1512 1515 1518 1520 1522 1523 1525 1526 1527 1528 1529 1530 1530 1531 1532 1533 1533 1534 1533 1532 1532 1532 1532 1532 1533 1534 1534 1535 1536 1536 1537 1538 1538 1539 1539 1540 1540 1540 1540
1449 1448 1448 1448 1449 1450 1451 1452 1452 1453 1453 1454 1454 1455 1457 1458 1459 1460 1461 1462 1463 1465 1466 1467 1468 1470 1472 1472 1474 1474 1473 1473 1474 1477 1480 1481 1482 1484 1485 1487 1490 1493 1495 1499 1503 1506 1508 1511 1513 1515 1517 1519 1520 1521 1521 1522 1523 1524 1525 1525 1526 1528 1529 1529 1529 1529 1530 1530 1529 1529 1529 1530 1530 1531 1532 1532 1533 1534 1534 1534 1535 1536 1537 1537 1537
1446 1446 1445 1445 1446 1446 1447 1448 1448 1449 1449 1450 1450 1451 1452 1454 1455 1456 1457 1459 1460 1461 1462 1463 1464 1466 1467 1467 1468 1468 1467 1468 1472 1475 1476 1476 1477 1478 1480 1482 1485 1488 1492 1496 1500 1501 1503 1506 1508 1510 1512 1514 1515 1515 1516 1517 1517 1518 1518 1519 1521 1522 1524 1524 1525 1525 1526 1526 1525 1525 1525 1526 1526 1527 1527 1528 1529 1529 1530 1530 1531 1531 1532 1533 1533
1444 1443 1441 1441 1442 1442 1442 1443 1443 1444 1445 1446 1447 1447 1448 1450 1451 1452 1453 1455 1456 1457 1458 1458 1460 1462 1462 1462 1464 1464 1464 1466 1469 1471 1471 1472 1473 1474 1475 1478 1480 1483 1488 1492 1494 1495 1498 1501 1504 1506 1508 1509 1509 1509 1510 1511 1511 1511 1513 1514 1515 1516 1517 1518 1518 1519 1519 1519 1519 1520 1521 1522 1522 1523 1524 1524 1525 1525 1526 1526 1526 1526 1527 1528 1529
1442 1440 1439 1438 1438 1438 1438 1438 1439 1440 1441 1442 1443 1444 1444 1445 1446 1447 1449 1450 1451 1453 1454 1454 1456 1457 1458 1459 1460 1461 1462 1464 1467 1467 1468 1469 1470 1470 1471 1473 1476 1479 1483 1486 1487 1489 1492 1496 1499 1501 1503 1504 1504 1504 1505 1505 1505 1506 1507 1508 1508 1509 1510 1511 1512 1513 1512 1512 1513 1515 1516 1517 1518 1519 1520 1521 1521 1521 1522 1522 1522 1523 1523 1524 1526
1440 1438 1436 1434 1434 1434 1434 1434 1435 1436 1437 1438 1439 1440 1441 1441 1442 1443 1444 1446 1448 1449 1450 1451 1453 1454 1455 1456 1458 1459 1460 1462 1464 1465 1466 1467 1467 1467 1468 1470 1472 1475 1478 1478 1480 1483 1487 1491 1494 1496 1498 1499 1499 1499 1499 1499 1499 1500 1501 1502 1502 1503 1505 1506 1507 1508 1508 1508 1509 1510 1511 1513 1514 1515 1516 1516 1517 1517 1518 1518 1519 1520 1520 1520 1522
1438 1436 1433 1431 1430 1430 1430 1431 1432 1433 1434 1435 1436 1436 1437 1438 1439 1439 1441 1442 1444 1445 1446 1447 1449 1451 1452 1454 1455 1457 1458 1459 1460 1461 1463 1464 1464 1465 1466 1467 1468 1469 1470 1470 1473 1477 1481 1485 1488 1490 1493 1494 1494 1494 1494 1493 1494 1495 1496 1497 1497 1499 1500 1502 1502 1502 1503 1505 1506 1506 1507 1508 1509 1510 1511 1512 1513 1513 1514 1515 1516 1516 1516 1517 1518
1436 1433 1431 1429 1427 1427 1427 1427 1428 1429 1430 1431 1432 1433 1434 1435 1436 1437 1438 1439 1440 1441 1442 1444 1446 1447 1449 1450 1452 1453 1454 1454 1455 1457 1458 1460 1461 1462 1463 1462 1462 1462 1462 1464 1467 1471 1475 1479 1482 1485 1487 1489 1488 1488 1488 1488 1488 1490 1491 1492 1492 1494 1495 1496 1496 1497 1499 1500 1501 1502 1503 1504 1505 1506 1507 1508 1509 1509 1510 1511 1512 1512 1513 1515 1516
1432 1429 1427 1425 1424 1424 1424 1424 1425 1425 1426 1427 1428 1429 1429 1431 1432 1433 1434 1435 1436 1437 1438 1440 1441 1443 1445 1446 1448 1449 1450 1451 1452 1453 1454 1456 1458 1458 1457 1456 1456 1456 1457 1459 1462 1466 1470 1474 1477 1479 1481 1482 1483 1483 1483 1483 1483 1485 1486 1487 1488 1489 1490 1490 1491 1493 1494 1495 1496 1498 1499 1500 1501 1503 1504 1504 1505 1506 1507 1507 1508 1509 1510 1512 1513
1429 1426 1424 1422 1421 1420 1420 1421 1421 1422 1422 1422 1423 1424 1425 1426 1427 1428 1428 1429 1429 1430 1431 1433 1434 1436 1438 1441 1443 1445 1446 1447 1448 1449 1450 1452 1452 1452 1451 1451 1452 1453 1453 1455 1458 1462 1465 1469 1471 1473 1475 1477 1477 1477 1478 1478 1479 1480 1481 1483 1484 1484 1485 1486 1488 1489 1490 1491 1493 1494 1495 1496 1497 1499 1500 1501 1502 1502 1503 1504 1505 1506 1507 1509 1511
1427 1424 1421 1419 1418 1417 1416 1416 1417 1417 1418 1418 1419 1420 1420 1421 1422 1423 1423 1423 1423 1423 1423 1424 1425 1426 1427 1430 1435 1440 1442 1442 1443 1444 1445 1446 1446 1446 1447 1448 1449 1449 1450 1452 1455 1457 1460 1464 1465 1466 1469 1472 1472 1471 1472 1473 1475 1476 1477 1479 1480 1480 1481 1482 1484 1485 1486 1487 1488 1490 1491 1492 1493 1494 1495 1497 1498 1499 1500 1501 1502 1503 1505 1506 1508
1424 1421 1419 1417 1415 1414 1413 1413 1413 1413 1413 1414 1414 1415 1415 1416 1417 1418 1418 1419 1419 1419 1419 1420 1420 1419 1419 1420 1424 1429 1434 1436 1437 1438 1439 1441 1442 1443 1444 1445 1445 1445 1446 1448 1451 1453 1455 1458 1459 1459 1463 1466 1466 1465 1466 1469 1471 1472 1474 1475 1476 1476 1476 1477 1479 1480 1481 1482 1483 1485 1487 1488 1489 1490 1491 1493 1494 1495 1497 1497 1498 1500 1502 1503 1504
1420 1418 1416 1414 1413 1412 1411 1410 1410 1410 1410 1410 1410 1410 1410 1410 1411 1412 1412 1413 1414 1413 1414 1414 1414 1415 1416 1417 1417 1419 1423 1428 1432 1433 1435 1437 1439 1440 1440 1440 1441 1442 1443 1445 1447 1449 1451 1452 1452 1453 1457 1460 1461 1460 1461 1463 1466 1469 1469 1470 1471 1472 1472 1472 1474 1475 1477 1478 1479 1481 1482 1484 1485 1486 1487 1489 1490 1491 1492 1493 1494 1496 1498 1500 1501
1419 1417 1415 1412 1411 1410 1409 1408 1408 1407 1407 1406 1406 1405 1404 1404 1405 1406 1406 1407 1407 1407 1407 1407 1408 1409 1411 1414 1415 1415 1417 1421 1425 1428 1430 1432 1434 1434 1435 1436 1437 1438 1440 1441 1443 1445 1446 1447 1446 1447 1450 1453 1455 1455 1455 1457 1462 1466 1466 1465 1466 1467 1468 1468 1470 1472 1473 1475 1476 1476 1478 1479 1481 1481 1482 1484 1485 1486 1487 1488 1490 1492 1495 1497 1498
1418 1416 1413 1411 1409 1408 1406 1405 1405 1404 1404 1403 1403 1402 1400 1399 1399 1400 1400 1401 1401 1402 1402 1402 1404 1405 1406 1408 1411 1412 1413 1415 1419 1422 1424 1426 1427 1427 1428 1430 1432 1433 1435 1437 1439 1440 1441 1441 1441 1441 1442 1445 1448 1450 1450 1452 1457 1461 1461 1460 1461 1462 1463 1464 1465 1467 1469 1471 1472 1473 1474 1475 1476 1477 1478 1478 1480 1482 1484 1486 1488 1491 1492 1494 1495
1418 1415 1412 1409 1407 1405 1403 1402 1402 1402 1401 1400 1399 1397 1396 1394 1393 1394 1395 1396 1397 1397 1397 1398 1400 1401 1402 1404 1406 1407 1408 1410 1413 1416 1419 1420 1421 1421 1422 1424 1426 1427 1430 1432 1434 1435 1436 1435 1435 1435 1436 1437 1441 1444 1446 1449 1453 1456 1456 1455 1455 1456 1456 1457 1459 1461 1463 1465 1467 1468 1469 1471 1472 1473 1474 1475 1476 1479 1481 1484 1486 1487 1489 1491 1492
1417 1414 1410 1407 1405 1402 1401 1400 1400 1400 1399 1397 1394 1392 1391 1390 1389 1389 1390 1391 1392 1393 1394 1395 1396 1398 1399 1401 1403 1404 1405 1407 1410 1412 1414 1415 1416 1417 1417 1418 1420 1422 1424 1427 1429 1431 1431 1430 1431 1431 1431 1432 1434 1438 1442 1445 1449 1452 1453 1452 1451 1451 1451 1452 1454 1456 1458 1460 1461 1462 1464 1466 1467 1469 1470 1472 1474 1477 1479 1481 1482 1484 1486 1488 1490
1415 1412 1408 1405 1403 1401 1399 1398 1397 1397 1395 1392 1388 1385 1384 1385 1385 1385 1386 1387 1388 1389 1391 1392 1393 1394 1396 1397 1399 1401 1402 1404 1406 1407 1409 1409 1411 1412 1413 1414 1415 1417 1420 1423 1425 1426 1426 1426 1426 1427 1428 1429 1430 1433 1436 1439 1442 1446 1448 1448 1447 1447 1447 1448 1449 1451 1452 1454 1455 1457 1459 1460 1462 1464 1467 1469 1472 1475 1477 1479 1480 1482 1484 1486 1487
1414 1410 1406 1403 1401 1399 1396 1395 1394 1393 1392 1388 1383 1379 1378 1380 1381 1382 1383 1384 1384 1386 1388 1389 1390 1390 1391 1393 1395 1396 1398 1399 1401 1402 1403 1405 1406 1407 1408 1409 1410 1413 1415 1418 1421 1421 1421 1422 1422 1424 1425 1427 1428 1429 1432 1433 1435 1438 1441 1442 1443 1444 1445 1445 1446 1446 1448 1449 1451 1453 1455 1457 1459 1462 1465 1467 1470 1472 1475 1477 1478 1480 1482 1483 1485
1411 1408 1405 1403 1400 1397 1395 1393 1392 1391 1390 1386 1380 1375 1375 1376 1378 1379 1379 1380 1381 1383 1383 1383 1383 1384 1385 1386 1388 1390 1392 1394 1395 1396 1398 1399 1401 1403 1404 1405 1406 1409 1411 1414 1416 1417 1417 1417 1418 1420 1422 1424 1426 1427 1429 1430 1431 1433 1436 1438 1439 1441 1443 1443 1443 1444 1445 1447 1449 1451 1453 1455 1458 1460 1463 1465 1467 1470 1472 1474 1476 1478 1479 1481 1482
1410 1407 1405 1402 1400 1398 1396 1394 1393 1392 1389 1385 1380 1375 1374 1374 1375 1375 1376 1376 1377 1378 1379 1378 1378 1379 1379 1381 1383 1385 1386 1388 1389 1390 1393 1395 1397 1399 1400 1401 1402 1404 1407 1409 1412 1412 1412 1413 1414 1416 1418 1420 1422 1424 1426 1427 1428 1430 1433 1434 1435 1436 1438 1440 1441 1442 1444 1446 1447 1449 1452 1454 1456 1458 1461 1463 1465 1468 1470 1472 1473 1475 1476 1478 1479
1409 1407 1405 1403 1400 1398 1396 1394 1393 1392 1389 1385 1381 1377 1376 1375 1375 1375 1375 1375 1375 1376 1376 1377 1377 1376 1376 1377 1378 1380 1381 1382 1383 1385 1387 1390 1393 1394 1396 1397 1398 1399 1402 1404 1406 1407 1408 1409 1410 1412 1415 1417 1419 1422 1424 1425 1427 1428 1430 1430 1431 1433 1435 1437 1439 1441 1444 1445 1447 1449 1450 1452 1454 1456 1458 1461 1463 1466 1468 1470 1472 1473 1474 1475 1476
1408 1407 1405 1403 1400 1398 1396 1395 1394 1392 1390 1386 1383 1380 1379 1379 1378 1377 1376 1376 1376 1376 1375 1376 1376 1376 1374 1373 1373 1374 1375 1377 1379 1380 1383 1387 1389 1391 1392 1392 1392 1394 1397 1399 1401 1402 1403 1405 1407 1410 1413 1415 1418 1421 1424 1425 1426 1427 1428 1429 1431 1433 1435 1437 1439 1441 1444 1446 1447 1449 1450 1452 1453 1455 1457 1459 1461 1464 1466 1469 1470 1471 1471 1472 1473
1407 1406 1405 1403 1400 1398 1396 1396 1395 1394 1392 1389 1386 1383 1381 1380 1380 1380 1379 1378 1377 1376 1376 1376 1377 1377 1375 1372 1370 1371 1373 1376 1378 1380 1382 1385 1388 1391 1392 1392 1391 1391 1393 1394 1396 1398 1400 1402 1405 1408 1412 1415 1418 1421 1424 1425 1426 1427 1428 1430 1432 1435 1437 1438 1439 1441 1443 1446 1448 1449 1450 1452 1453 1455 1456 1458 1460 1461 1464 1466 1468 1469 1470 1470 1471